Back to catalog

STARLINK-36444

AliveCommunicationsVLEO
NORAD 67521·PAYLOAD·🇺🇸 United States

Launched Jan 18, 2026 from Cape Canaveral Space Force Station

Loading…

Next Passes (next 24 hours)

TLE

FreshSource: CelesTrak SupGP

Epoch: Sep 15, 2026, 04:13 UTC

1 67521C 26012AE  26258.17618056  .00040038  00000+0  14498-2 0  2589
2 67521  43.0034 324.0896 0001565 264.5558  91.2443 15.27566317    18

Track STARLINK-36444 in real time with AllMySat

Download on the App Store